Location: Andiroba
(19.8650°S, 43.9258°W)
Time: 01:40:19
(UTC+00:00)

Cosmos 1725 Rocket - Pass Details

Date: 15 June 2024
Orbit: 961 x 990 km, 82.9° (Epoch: 24 July)

Event Time Altitude Azimuth Distance (km) Brightness Sun altitude
Exits shadow 07:53:25 36° 279° (W) 1,480 4.5 -21.6°
Drops below altitude 10° 07:58:35 10° 335° (NNW) 2,705 6.3 -20.5°
Sets 08:01:17 0° 343° (NNW) 3,650 7.0 -19.9°
